Sisseton, SD

11:36 PM CDT on March 28, 2017 (GMT -0500)
Sisseton

Weather History for K8D3 - October, 2011

Change the Weather History Date:

Wednesday, October 26, 2011

  Actual Average Record
Temperature  
Mean Temperature 42 °F 42 °F  
Max Temperature 51 °F 52 °F 85 °F (1955)
Min Temperature 33 °F 32 °F 4 °F (1936)
Degree Days  
Heating Degree Days 23 23  
Month to date heating degree days 309 459  
Since 1 July heating degree days 525 704  
Cooling Degree Days 0 0  
Month to date cooling degree days 19 0  
Year to date cooling degree days 642 523  
Moisture  
Dew Point 33 °F    
Average Humidity 67    
Maximum Humidity 92    
Minimum Humidity 42    
Precipitation  
Precipitation 0.00 in 0.04 in 0.74 in (1954)
Month to date precipitation 0.99 1.86  
Year to date precipitation 20.92 21.14  
Snow  
Snow 0.00 in - - ()
Month to date snowfall 0.0  
Since 1 July snowfall 0.0  
Snow Depth 0.00 in    
Sea Level Pressure  
Sea Level Pressure 30.12 in    
Wind  
Wind Speed 9 mph (NNW)    
Max Wind Speed 18 mph    
Max Gust Speed 23 mph    
T = Trace of Precipitation, MM = Missing Value Source: NWS Daily Summary

Daily Weather History Graph

Daily Weather History Graph

Search for Another Location

Airport or City:

Trip Planner

Search our weather history database for the weather conditions in past years. The results will help you decide how hot, cold, wet, or windy it might be!

Date:

Astronomy

Oct. 26, 2011 Rise Set
Actual Time 7:59 AM CDT 6:24 PM CDT
Civil Twilight 7:28 AM CDT 6:54 PM CDT
Nautical Twilight 6:53 AM CDT 7:29 PM CDT
Astronomical Twilight 6:19 AM CDT 8:03 PM CDT
Moon 7:51 AM CDT (10/26) 6:03 PM CDT (10/26)
Length of Visible Light 11h 26m
Length of Day
10h 24m
Waning Crescent, 0% of the Moon is Illuminated
Oct 26
Waning Crescent
Oct 26
New
Nov 2
First Quarter
Nov 10
Full
Nov 18
Last Quarter

Hourly Weather History & Observations

Time (CDT) Temp. Windchill Dew Point Humidity Pressure Visibility Wind Dir Wind Speed Gust Speed Precip Events Conditions
12:56 AM 41.0 °F - 37.9 °F 89% 30.07 in - Calm Calm - N/A   Unknown
1:56 AM 37.9 °F 34.4 °F 36.0 °F 93% 30.09 in - West 4.6 mph - N/A   Unknown
2:56 AM 37.0 °F 34.5 °F 35.1 °F 93% 30.09 in - NNW 3.5 mph - N/A   Unknown
3:56 AM 39.0 °F 33.4 °F 35.1 °F 86% 30.09 in - NW 8.1 mph - N/A   Unknown
4:56 AM 41.0 °F 34.7 °F 37.0 °F 86% 30.10 in - NW 10.4 mph - N/A   Unknown
5:56 AM 41.0 °F 34.7 °F 37.9 °F 89% 30.11 in - NNW 10.4 mph - N/A   Unknown
6:56 AM 39.9 °F 32.1 °F 37.0 °F 89% 30.12 in - NNW 13.8 mph - N/A   Unknown
7:56 AM 37.9 °F 28.9 °F 34.0 °F 86% 30.14 in - NNW 16.1 mph - N/A   Unknown
8:56 AM 37.9 °F 30.0 °F 34.0 °F 86% 30.15 in - NNW 12.7 mph - N/A   Unknown
9:56 AM 39.9 °F 31.4 °F 36.0 °F 86% 30.17 in - North 16.1 mph - N/A   Unknown
10:56 AM 42.1 °F 34.2 °F 36.0 °F 79% 30.17 in - North 16.1 mph 23.0 mph N/A   Unknown
11:56 AM 46.9 °F - 36.0 °F 66% 30.17 in - NNE 13.8 mph - N/A   Unknown
12:56 PM 48.0 °F - 35.1 °F 61% 30.17 in - North 11.5 mph - N/A   Unknown
1:56 PM 46.9 °F - 34.0 °F 61% 30.15 in - North 10.4 mph - N/A   Unknown
2:56 PM 48.0 °F - 33.1 °F 56% 30.13 in - North 10.4 mph - N/A   Unknown
3:56 PM 50.0 °F - 32.0 °F 50% 30.11 in - NNW 10.4 mph - N/A   Unknown
4:56 PM 51.1 °F - 30.9 °F 46% 30.09 in - NNE 9.2 mph - N/A   Unknown
5:56 PM 48.0 °F - 27.0 °F 44% 30.09 in - NNW 6.9 mph - N/A   Unknown
6:56 PM 42.1 °F 38.4 °F 30.9 °F 65% 30.10 in - West 5.8 mph - N/A   Unknown
7:56 PM 37.9 °F 32.7 °F 28.9 °F 70% 30.11 in - WNW 6.9 mph - N/A   Unknown
8:56 PM 36.0 °F - 28.0 °F 73% 30.11 in - Calm Calm - N/A   Unknown
9:56 PM 37.0 °F 32.4 °F 28.9 °F 73% 30.10 in - West 5.8 mph - N/A   Unknown
10:56 PM 35.1 °F 28.6 °F 28.0 °F 76% 30.11 in - WNW 8.1 mph - N/A   Unknown
11:56 PM 37.0 °F 31.0 °F 28.9 °F 73% 30.09 in - NW 8.1 mph - N/A   Unknown